GFSSGP_250_rhum_111.txt.gz
RH
42 42 39 37 38 35 37 37 31 28 24 18 17 17 15 11 11 9 8 8 8 8 9 12 11 12 12 10 10 10 9 8 6 5 5 5 5 5 6 8 7 6 7 8 10 11 12 16 15
47 44 45 45 46 41 46 42 35 33 28 25 23 20 20 16 14 12 10 10 13 12 13 18 17 15 16 15 15 15 14 11 9 7 6 23 19 30 37 20 9 7 8 8 9 16 14 12 14
48 48 54 55 55 48 52 46 41 39 32 28 25 23 23 20 18 14 13 12 15 23 20 23 25 23 22 22 22 20 17 12 10 10 8 9 19 12 14 12 8 8 10 11 11 27 21 17 16
52 55 69 66 60 54 55 46 46 41 36 29 27 22 25 24 19 16 15 14 17 33 38 38 33 27 27 30 26 21 16 16 21 26 23 45 61 100 86 61 10 12 43 22 14 17 30 31 25
78 84 78 75 64 62 59 48 54 44 37 29 24 22 30 28 23 20 18 17 18 35 47 46 39 28 33 31 30 28 20 17 65 53 44 55 100 100 92 93 46 89 50 49 42 32 24 40 38
88 87 86 76 71 67 59 60 54 41 37 29 24 24 34 37 28 23 22 21 18 20 36 36 47 43 44 35 40 30 18 22 70 100 80 38 100 78 77 95 100 89 58 68 70 50 40 37 44
88 90 90 85 89 74 64 53 43 46 38 32 30 26 31 53 44 34 25 25 22 20 18 21 42 61 66 44 43 34 20 15 84 100 86 66 94 100 100 100 100 92 82 68 53 52 70 68 58
84 88 94 99 94 71 64 53 48 46 42 39 26 26 38 61 61 58 37 29 26 25 21 24 33 46 68 42 53 38 22 15 59 100 85 83 100 100 100 100 91 86 70 29 47 85 82 50 39
100 89 100 100 100 87 58 52 51 46 47 40 31 24 30 76 80 67 46 31 30 29 26 24 28 51 67 40 58 40 27 19 22 93 94 84 99 100 100 95 84 71 49 71 64 80 57 38 36
100 92 99 100 100 92 62 57 60 50 54 48 37 29 29 78 100 83 69 40 32 36 33 25 26 27 39 51 63 41 30 20 16 73 100 98 92 96 100 99 83 70 92 89 65 43 39 38 28
100 100 100 100 100 86 77 66 54 62 60 59 44 35 24 56 98 94 70 48 46 56 41 32 29 25 50 65 57 43 37 24 17 39 100 99 100 89 92 97 100 97 83 86 56 50 44 35 33
100 100 100 100 100 92 78 73 72 80 68 54 39 33 25 44 60 100 86 60 62 68 57 34 34 29 50 62 54 40 43 24 21 32 97 100 100 100 77 78 100 99 99 87 69 60 53 40 30
100 100 100 100 100 100 100 93 79 71 71 59 48 36 30 36 58 100 96 76 77 75 60 35 38 31 30 64 54 37 47 30 20 28 99 100 100 100 81 87 100 92 100 83 63 70 47 37 26
100 100 100 97 89 99 100 100 72 83 78 62 49 34 34 35 46 41 68 90 87 77 50 35 38 33 27 67 52 39 47 40 19 24 85 100 100 83 85 79 99 91 100 89 66 68 51 37 31
100 99 87 90 100 100 100 100 87 84 77 63 55 28 39 39 31 40 86 86 77 67 42 36 40 34 28 65 58 38 49 47 20 24 92 100 89 100 68 95 99 90 100 99 74 59 50 37 42
96 85 100 100 100 99 98 80 74 64 57 47 33 31 41 53 54 60 96 88 62 47 39 42 38 32 41 81 58 46 47 47 20 21 82 100 80 100 100 97 81 93 100 100 90 61 43 53 52
94 100 100 100 100 100 100 91 71 60 49 38 53 69 71 75 68 88 89 72 52 39 41 46 38 34 32 83 60 59 45 52 23 19 49 100 85 93 97 95 100 99 100 98 82 67 43 68 61
96 88 96 100 100 100 100 100 100 100 98 99 81 73 79 89 98 80 63 58 46 48 46 42 42 47 33 50 59 70 48 48 21 17 87 98 78 100 81 88 100 100 100 95 70 63 54 57 55
83 81 72 77 81 89 88 100 100 100 100 95 97 80 88 73 43 50 48 48 45 55 44 41 40 45 37 57 67 80 56 46 22 16 89 92 81 98 100 100 100 100 100 80 80 50 54 82 75
82 80 88 99 80 70 87 92 92 100 100 98 89 83 72 59 44 34 36 51 48 48 45 42 37 43 38 95 88 83 71 48 27 16 97 97 91 99 100 100 100 100 100 100 81 72 66 54 41
65 66 70 76 93 94 71 68 87 88 77 81 75 57 52 54 49 45 49 54 48 49 49 44 42 43 37 98 98 97 81 49 28 17 92 99 93 100 100 100 100 97 100 100 94 100 74 41 79
74 67 57 73 75 83 68 50 49 65 74 74 67 58 52 46 44 47 48 62 56 54 55 50 44 40 40 96 100 84 78 40 28 18 80 100 100 98 100 98 93 100 100 97 100 100 84 85 100
99 86 72 73 72 58 52 44 45 56 70 70 72 69 64 63 52 52 56 64 64 56 62 50 45 35 54 96 100 77 66 40 31 18 66 100 100 100 100 100 100 100 100 100 100 100 100 100 100
89 84 72 78 77 63 81 68 58 91 100 100 94 88 77 71 66 62 71 75 60 59 61 50 47 34 76 88 100 88 51 38 27 18 77 100 100 100 100 100 100 100 100 100 100 100 100 100 100
61 68 87 85 74 74 83 75 96 96 100 100 100 97 81 74 72 74 89 75 58 63 57 58 52 37 82 91 99 86 46 35 24 17 62 100 100 100 100 100 100 90 100 100 100 100 100 100 100
61 70 82 87 76 79 89 83 97 100 96 100 100 93 76 74 92 100 93 64 61 68 62 64 52 42 97 86 100 67 42 33 26 18 22 100 81 100 100 100 100 94 83 100 100 100 100 92 70
62 65 90 89 73 67 74 72 92 92 96 84 98 92 100 93 83 100 72 60 62 63 60 51 45 66 100 100 94 57 39 32 32 20 18 100 100 97 100 100 100 100 100 100 100 100 100 100 100
44 61 56 58 58 60 69 76 88 100 88 78 100 100 100 100 96 98 67 62 67 61 57 53 42 83 100 90 100 57 35 41 38 21 20 98 100 87 90 100 100 100 100 100 100 100 100 100 100
36 46 48 55 52 64 79 94 96 97 95 68 81 81 81 96 98 91 65 69 66 64 60 48 68 100 82 96 99 57 44 59 47 29 22 100 100 100 84 65 88 98 100 100 100 100 100 100 100
25 32 45 52 36 45 73 100 100 100 100 100 86 85 96 100 98 87 69 73 72 66 53 43 96 100 100 100 99 68 57 83 52 43 25 31 100 100 100 100 82 60 93 100 100 100 100 100 100

GFSSGP_250_rhum_114.txt.gz
RH
34 38 38 42 40 37 43 40 36 37 38 27 27 23 18 14 11 11 11 12 11 10 8 8 9 10 10 10 11 12 10 10 10 8 8 8 6 5 5 5 6 6 6 6 6 7 9 10 20
49 54 52 47 45 43 45 45 46 45 42 30 33 29 20 18 14 13 12 14 13 12 10 12 14 14 15 17 18 18 17 15 15 11 10 12 15 20 51 49 29 13 8 6 7 10 11 13 15
61 63 58 52 54 49 48 47 50 53 46 39 39 30 22 21 16 16 16 16 15 14 12 13 17 22 18 17 16 19 24 22 20 18 17 23 27 69 86 89 92 40 16 22 31 16 19 15 13
70 70 62 53 51 58 59 56 66 58 51 45 42 31 25 21 20 18 18 21 18 15 13 13 14 22 27 22 23 23 33 27 25 35 26 22 73 100 100 95 96 94 90 28 54 35 23 16 20
87 81 67 51 60 70 74 73 66 56 54 47 42 33 28 24 24 20 19 28 25 20 18 17 16 15 18 18 20 25 33 32 19 57 77 81 100 100 100 100 96 86 90 47 53 67 46 28 22
88 82 81 71 68 71 76 70 69 57 57 46 48 38 32 31 26 22 20 30 32 29 23 23 20 18 17 17 20 27 40 41 34 17 37 36 89 100 100 100 93 82 96 27 42 65 65 55 39
84 86 82 80 76 73 70 60 66 56 61 61 52 44 37 39 32 27 24 23 33 38 26 24 29 20 18 18 20 23 45 46 43 22 14 33 58 100 100 100 94 100 93 86 93 72 66 58 51
100 100 96 90 90 79 67 58 66 62 69 74 53 45 39 44 39 36 30 26 38 35 37 28 35 26 20 19 20 29 44 46 39 25 16 35 51 59 100 89 100 100 100 100 92 59 53 52 53
99 95 100 100 100 84 65 72 79 80 85 84 70 49 45 46 44 42 30 31 58 42 30 30 37 35 22 20 20 29 43 53 36 26 18 42 66 74 77 100 100 100 100 94 79 66 47 48 55
100 100 100 100 100 100 97 91 100 100 96 89 83 63 44 42 51 44 29 30 51 44 29 25 42 44 26 21 22 22 41 50 35 31 23 29 64 78 91 100 100 100 100 94 82 46 61 83 67
96 100 100 100 100 100 95 87 90 88 83 100 86 60 50 52 60 55 37 31 33 46 47 38 49 54 30 24 22 26 48 58 41 45 41 45 69 99 95 100 100 100 100 89 59 79 84 65 40
100 100 100 100 100 100 100 100 99 96 89 91 83 61 56 56 63 56 44 44 34 46 43 43 50 60 40 30 24 26 46 63 36 35 37 40 65 96 100 100 100 100 96 99 81 78 63 52 36
100 100 100 100 100 100 100 99 100 100 100 100 77 59 52 54 63 65 51 44 32 41 50 40 59 78 39 28 26 25 41 60 38 45 47 23 43 100 100 100 100 100 96 100 77 72 76 63 53
98 95 100 100 100 100 100 100 96 92 100 100 92 84 74 57 64 70 54 42 37 33 35 42 66 54 36 30 30 26 35 63 42 49 43 20 32 98 99 100 92 100 100 98 92 91 80 59 46
100 100 100 100 94 100 100 100 100 100 91 62 55 53 47 46 61 64 61 44 40 45 41 50 77 43 40 36 32 28 32 60 43 51 42 20 25 99 94 100 100 96 100 100 92 87 88 66 43
100 100 100 100 100 100 100 89 98 83 81 83 70 66 64 61 64 71 69 58 36 47 48 74 62 45 43 37 39 26 27 58 44 50 42 21 20 99 80 100 100 92 100 100 88 100 73 56 55
100 100 100 100 100 100 100 100 100 84 71 64 55 55 69 68 53 57 65 51 35 55 72 90 53 49 45 37 41 27 51 63 45 48 46 22 18 90 99 99 100 94 100 100 100 100 87 58 63
98 100 100 100 100 100 100 100 100 100 98 91 76 70 62 50 52 60 74 70 58 73 57 45 46 44 42 39 37 32 50 73 50 40 38 20 17 58 78 88 100 100 98 100 100 100 94 75 69
100 100 89 100 98 96 99 97 100 100 100 100 100 100 99 95 100 99 92 93 91 71 50 43 44 41 43 38 37 31 30 63 54 40 33 21 17 79 74 78 100 100 100 100 100 100 89 78 66
100 100 97 100 100 97 100 97 92 88 99 100 96 99 100 100 100 100 100 100 78 66 55 42 43 47 51 40 39 31 30 34 57 46 34 25 18 73 79 82 100 91 100 100 100 100 94 88 69
99 100 86 77 93 88 97 95 100 93 77 78 80 83 70 78 100 100 100 95 85 73 54 47 50 52 52 44 38 30 33 65 65 48 38 25 19 95 96 86 100 100 100 100 100 100 94 83 72
99 100 98 84 85 87 89 86 90 90 86 84 78 72 78 99 100 100 100 87 69 56 51 50 48 49 55 39 39 31 39 91 74 42 39 26 19 99 100 93 100 100 93 100 99 100 88 59 64
100 85 88 99 100 97 89 71 95 87 92 91 82 77 74 74 89 100 100 88 71 63 59 55 54 63 56 42 39 34 42 91 78 50 40 32 18 100 100 100 100 98 100 97 97 100 78 72 87
100 83 81 76 84 73 90 70 70 82 69 85 94 89 78 67 66 100 100 99 87 82 70 65 71 67 50 46 38 35 45 92 76 56 42 23 17 100 100 92 100 100 100 100 100 100 82 88 100
77 90 94 87 71 85 99 91 94 80 78 87 100 94 78 62 71 100 100 100 99 92 86 86 84 70 54 48 40 40 84 91 71 58 40 17 17 95 100 77 100 100 99 100 100 100 93 100 100
52 74 90 96 86 97 93 86 93 84 78 85 96 99 89 75 75 83 91 99 100 96 96 100 92 74 52 45 42 55 96 81 72 50 30 19 19 94 100 84 83 100 100 100 100 100 100 100 100
27 35 68 93 85 73 80 93 96 97 76 68 72 83 92 92 84 87 90 100 100 100 100 100 86 63 47 47 46 82 89 85 80 45 29 26 21 91 100 99 100 98 100 100 100 100 100 98 100
20 34 41 39 57 71 83 82 84 83 87 86 87 86 88 100 90 85 95 100 97 100 100 96 62 51 46 49 49 94 81 100 66 40 32 29 19 90 100 100 100 100 100 93 100 95 100 100 100
17 24 28 34 44 52 76 86 83 74 89 89 93 86 95 100 100 100 99 88 96 100 100 93 58 46 48 49 72 96 96 100 58 39 35 31 22 100 100 100 100 100 100 98 74 100 100 100 100
11 18 23 22 26 37 66 85 75 88 92 88 74 84 94 100 100 100 99 89 100 100 100 93 56 47 45 57 94 100 100 100 71 39 38 36 32 100 100 99 99 100 100 100 100 100 100 100 87

GFSSGP_250_rhum_117.txt.gz
RH
29 29 31 28 33 35 32 36 36 38 35 35 36 32 29 31 27 22 18 14 13 11 11 10 11 10 8 8 9 10 10 10 11 11 10 8 15 16 29 35 42 26 17 10 10 15 26 14 6
46 40 42 41 44 39 43 48 51 44 40 43 42 39 36 38 29 25 19 17 15 13 12 12 12 11 11 10 13 15 14 15 16 15 12 15 21 38 73 88 100 87 90 82 34 19 22 18 17
56 56 52 59 58 49 52 55 55 50 50 51 47 47 43 41 28 26 21 19 18 15 15 16 14 13 13 13 14 20 17 17 17 18 14 26 67 99 97 99 88 83 100 92 79 69 59 33 21
53 59 54 64 80 74 64 58 60 54 51 53 61 55 48 37 30 26 24 24 22 21 19 19 18 16 15 14 14 15 16 15 19 23 18 23 98 87 100 100 100 82 87 100 96 100 84 44 35
73 61 60 72 94 82 71 66 61 51 50 65 67 59 45 37 33 28 24 29 28 25 23 22 25 22 19 17 16 15 14 14 17 23 18 35 100 100 96 100 92 100 82 99 88 96 86 59 48
63 67 72 66 76 76 73 83 77 69 69 69 67 56 43 37 32 30 27 31 32 27 25 23 23 23 22 24 16 15 15 15 16 26 25 19 83 100 100 100 98 100 100 84 84 94 82 55 61
99 99 98 100 100 100 96 75 76 73 68 66 70 53 48 39 34 33 32 34 33 34 29 22 20 20 25 31 20 15 16 18 18 30 32 17 24 89 100 100 100 93 100 86 74 93 86 37 56
86 100 96 97 82 82 91 75 88 74 68 64 72 66 63 67 47 42 41 39 34 40 41 32 25 23 23 32 30 17 18 19 19 30 39 48 42 18 39 100 100 86 86 96 99 94 93 60 46
100 100 100 100 100 100 96 94 91 79 69 78 73 83 59 82 67 60 56 46 40 40 42 38 30 26 26 32 33 22 21 23 22 33 46 48 60 31 13 30 74 100 89 98 100 100 98 87 75
100 100 100 100 100 100 83 78 65 60 66 78 93 100 100 99 83 70 55 52 44 45 47 39 33 30 27 35 38 29 22 25 24 24 48 34 54 67 42 48 57 60 88 100 100 100 98 98 74
100 100 100 100 100 100 99 99 98 77 75 100 100 98 66 83 73 72 63 61 51 46 50 48 34 26 27 36 50 32 28 24 25 38 53 44 67 72 86 70 63 99 100 100 100 99 98 94 70
59 99 100 100 100 100 100 98 88 99 100 100 100 100 82 70 77 74 52 63 63 55 46 52 41 30 27 39 51 38 30 27 25 41 54 38 51 63 67 56 86 100 100 100 99 100 97 86 74
94 72 80 100 100 100 100 92 89 87 98 100 100 100 100 100 100 93 78 69 87 88 45 55 48 32 34 40 53 40 28 27 26 35 63 42 65 58 58 90 86 97 100 100 100 100 100 78 93
71 100 88 77 92 100 100 100 100 100 100 100 100 100 100 100 100 100 100 100 88 85 45 53 50 37 37 43 55 47 30 26 26 25 59 35 50 43 50 77 100 100 100 100 100 100 100 86 76
41 79 100 98 100 100 100 100 100 100 100 100 100 98 93 77 77 78 90 71 73 92 51 62 47 47 39 48 57 40 30 29 27 26 60 49 52 60 52 56 100 100 97 100 100 100 98 82 81
52 38 63 100 100 100 100 96 100 100 100 94 94 77 88 98 90 76 88 100 100 88 56 58 42 50 49 67 50 36 29 32 30 27 52 52 42 46 54 55 79 100 100 100 100 100 96 100 90
43 45 41 67 100 100 100 100 100 100 98 77 68 57 55 58 58 61 70 75 65 87 62 50 44 52 58 56 37 32 32 31 29 30 39 65 42 45 40 37 71 87 85 100 100 100 100 100 88
37 47 50 61 96 100 100 100 100 100 100 100 100 95 75 63 69 59 68 73 70 73 65 42 57 75 67 50 42 33 34 33 28 30 41 61 45 46 21 28 82 86 85 94 100 100 100 99 100
39 44 54 66 100 100 93 100 100 100 100 100 100 97 86 82 78 83 73 68 66 70 89 63 74 80 80 56 46 37 32 33 30 30 50 55 41 33 24 17 43 99 100 100 100 100 100 99 99
38 47 58 94 100 94 94 99 100 100 100 100 100 100 100 100 100 95 96 94 88 94 100 95 91 97 88 63 47 44 34 34 32 32 38 60 46 39 26 19 42 100 92 75 97 100 100 100 100
43 52 75 72 80 92 100 84 87 100 100 100 100 91 100 100 100 100 100 100 100 100 100 100 100 95 84 66 49 50 40 36 32 32 34 58 57 39 28 19 46 82 92 88 81 100 100 100 100
40 74 84 89 100 84 92 84 100 99 99 100 100 98 96 74 88 91 98 97 100 100 100 100 100 97 82 71 52 52 46 41 33 32 46 43 64 41 27 27 56 89 100 100 99 99 100 100 100
29 71 46 76 100 100 100 95 100 100 98 86 95 100 100 93 78 68 68 72 86 90 100 100 100 100 88 70 59 58 54 48 35 34 63 78 72 39 33 26 73 84 100 100 100 100 100 100 100
32 43 44 52 64 91 99 96 100 100 100 100 83 82 100 100 100 95 88 83 80 69 82 95 100 99 94 80 76 67 62 47 40 36 64 91 64 46 36 23 80 98 92 100 100 100 100 100 100
19 21 24 39 52 52 100 100 100 100 100 100 97 100 100 100 100 100 99 93 84 70 70 76 100 100 100 100 85 81 61 45 43 39 52 80 59 44 33 21 79 100 100 100 100 100 99 100 100
14 16 19 34 39 69 88 81 100 100 100 100 100 100 98 94 96 100 93 91 84 79 67 64 100 100 100 99 97 92 68 49 47 41 82 75 64 45 24 19 86 94 100 100 100 100 95 100 97
15 15 16 22 49 100 100 84 99 100 100 92 95 94 96 90 91 98 96 81 87 77 69 62 100 100 100 95 98 98 61 53 50 44 94 76 62 39 21 20 97 80 100 100 100 100 100 97 94
8 14 19 20 26 40 92 100 100 99 92 95 94 96 100 97 82 74 75 84 80 88 77 65 86 100 100 99 100 80 61 51 52 58 87 76 62 36 28 23 93 93 97 100 100 100 100 100 100
6 7 12 21 23 24 61 100 100 100 100 100 100 100 100 100 98 90 87 81 83 86 85 87 100 100 98 100 96 72 58 47 56 73 91 77 61 36 32 18 100 97 81 89 100 100 100 100 100
7 8 8 12 20 25 33 69 100 100 94 100 96 100 100 100 100 100 93 89 84 87 100 100 100 100 100 100 90 66 62 53 69 86 100 88 59 38 26 26 100 100 85 100 100 80 100 100 100

GFSSGP_250_rhum_120.txt.gz
RH
30 30 30 30 29 27 28 27 27 25 28 29 28 25 26 27 29 26 32 29 26 21 18 15 13 11 11 11 12 10 10 9 8 8 8 7 7 11 28 82 100 97 51 56 52 44 59 45 21
32 31 28 28 28 30 39 38 32 26 27 35 32 33 34 32 36 34 37 33 26 22 19 18 16 15 12 13 13 12 11 10 10 11 11 12 13 93 99 100 96 76 100 100 90 72 73 93 78
36 35 35 34 34 45 56 47 43 38 45 39 40 41 43 38 47 43 43 36 28 24 20 21 18 17 17 14 15 14 14 13 12 11 12 14 52 100 99 100 100 94 84 97 85 95 92 97 91
33 28 33 39 55 68 64 60 49 47 55 50 50 49 44 46 45 44 51 38 29 26 23 25 22 21 20 18 18 16 14 14 14 13 14 16 50 100 89 93 100 100 100 72 86 100 100 100 90
33 31 32 35 50 62 55 69 59 56 56 57 56 54 53 53 52 56 52 40 31 28 28 26 26 26 20 20 20 22 17 15 13 13 14 12 33 100 100 100 100 100 100 94 88 99 100 100 74
55 46 41 50 61 56 60 77 60 62 75 65 64 68 68 60 62 60 50 39 28 30 31 31 28 26 26 26 24 25 21 18 14 13 14 15 18 91 100 100 100 100 100 100 100 97 98 79 65
56 61 63 61 75 71 92 82 47 58 90 84 83 80 74 59 71 58 51 43 34 40 38 39 32 30 24 25 26 26 26 21 17 16 15 14 14 65 100 100 100 100 100 100 99 98 90 76 58
77 62 49 78 100 100 100 100 98 100 100 100 100 79 70 45 78 55 59 48 41 48 44 34 34 36 33 30 26 23 28 25 19 19 19 17 17 22 97 100 100 100 100 100 100 87 85 59 52
100 99 72 93 99 100 100 100 80 67 97 87 68 87 82 74 84 51 46 58 64 59 55 42 35 33 34 34 32 24 32 27 22 20 20 19 20 25 21 64 100 100 100 100 100 100 96 94 74
52 95 100 84 90 100 100 100 92 61 100 86 86 100 98 64 72 63 78 97 86 55 57 59 40 38 36 37 38 35 32 29 23 24 24 21 21 32 46 33 36 75 89 99 90 91 98 93 98
59 45 68 100 97 62 100 100 93 91 100 100 100 71 83 68 81 97 59 38 49 48 55 66 52 49 44 49 43 38 30 34 24 25 24 22 25 32 37 61 53 67 59 90 96 97 100 100 100
42 47 49 76 100 98 64 99 100 99 99 88 90 71 99 99 100 100 86 52 50 57 75 69 62 74 64 54 47 43 32 36 24 25 27 23 36 49 51 67 76 75 77 69 82 89 72 91 100
25 36 42 48 85 100 100 76 100 100 100 100 100 100 100 100 100 100 100 88 96 100 100 88 89 76 51 52 55 48 36 36 24 26 27 27 30 48 45 57 78 59 49 55 93 87 88 96 84
31 25 29 36 48 59 100 100 100 100 100 100 100 100 80 93 100 100 100 100 100 100 93 100 65 48 61 63 61 52 39 35 29 28 28 28 24 41 51 67 73 67 75 86 100 100 100 100 95
24 23 24 28 45 54 61 100 100 100 100 100 100 100 100 84 100 100 100 100 100 100 76 77 71 41 76 85 49 58 38 38 33 27 31 28 25 41 48 82 84 70 85 69 100 100 100 100 94
24 21 22 27 32 49 57 50 100 100 100 91 77 80 100 100 100 100 100 100 100 72 75 76 84 58 56 69 52 55 41 39 39 28 33 27 25 43 53 55 84 85 88 86 80 100 100 100 100
30 25 24 27 30 34 51 37 58 100 100 100 95 81 83 75 75 93 96 100 100 100 99 87 64 50 45 64 51 58 48 43 44 35 32 30 27 35 54 42 60 85 81 93 86 100 100 100 100
20 22 21 20 30 36 42 39 54 80 100 100 100 100 96 98 72 58 67 70 72 72 69 59 66 57 47 58 55 53 59 59 51 38 33 33 29 28 60 43 42 64 71 73 86 98 99 100 100
18 18 20 25 29 38 45 42 45 52 93 100 100 100 100 100 100 100 83 83 65 59 71 71 62 70 49 54 63 58 68 69 53 43 36 36 30 28 70 54 42 30 54 67 100 78 84 100 100
18 19 21 27 31 34 42 40 52 53 54 93 100 100 100 100 100 100 100 100 85 87 84 95 72 71 65 64 84 82 86 82 61 47 39 39 38 30 58 65 36 38 25 38 100 91 91 100 100
17 16 18 23 32 32 34 34 48 55 55 78 100 100 100 100 100 100 100 100 100 100 99 100 99 100 92 91 100 100 100 100 73 50 44 41 44 31 43 71 43 49 27 30 100 91 62 90 100
12 18 17 18 27 27 32 29 38 48 54 92 100 100 100 100 100 100 100 100 100 100 100 100 100 100 100 96 100 100 100 100 83 56 50 45 48 35 33 60 47 49 28 35 100 100 86 89 92
13 19 14 16 18 25 29 27 48 48 51 66 100 100 100 100 100 100 100 83 99 100 100 100 100 100 100 100 100 100 100 100 91 69 53 50 53 37 33 52 57 48 25 36 100 93 83 100 100
11 15 17 17 18 16 27 50 100 81 69 92 100 100 100 99 94 99 100 100 99 84 69 73 95 98 70 73 84 98 96 100 92 81 67 54 48 38 39 66 62 42 32 29 100 96 83 96 96
6 8 13 15 15 10 72 45 100 100 98 96 94 98 100 100 100 99 82 80 93 100 100 88 74 57 67 81 70 68 74 99 98 85 78 66 47 41 43 99 82 47 36 31 95 97 98 100 98
7 6 7 12 16 15 52 31 100 100 100 100 100 84 92 93 100 100 99 99 97 79 95 100 100 78 81 84 67 69 73 98 100 99 87 62 46 43 45 100 79 50 36 39 100 99 97 100 100
6 6 7 8 11 13 43 34 93 100 100 100 100 98 100 100 100 100 100 100 100 88 81 93 92 99 88 75 69 66 82 98 100 93 74 59 50 46 40 99 95 64 32 26 100 100 100 100 100
5 6 6 6 8 11 34 37 85 91 100 100 96 99 100 100 100 100 100 100 100 82 79 74 77 87 97 79 91 76 81 100 100 88 69 59 52 45 54 92 86 53 26 20 100 94 100 100 100
5 5 6 7 8 11 23 36 100 100 100 100 100 100 100 100 100 100 100 100 100 100 95 79 90 86 93 85 88 80 70 89 93 78 73 52 50 46 64 96 84 50 24 21 95 100 100 100 100
6 6 6 7 8 8 16 24 100 84 78 75 62 82 100 99 100 100 100 100 100 99 96 90 93 85 78 83 94 91 80 90 87 76 62 51 51 47 70 83 71 51 24 23 94 100 100 93 100

GFSSGP_250_rhum_126.txt.gz
RH
30 32 31 32 35 35 34 36 42 45 49 40 36 32 32 31 29 30 31 29 27 25 25 25 23 23 23 24 22 19 17 16 14 12 11 10 10 10 9 12 20 45 95 97 98 82 99 100 100
30 31 31 27 27 30 34 43 34 30 32 33 32 28 29 30 30 33 34 29 27 27 26 26 25 27 31 28 24 21 20 18 16 14 12 11 10 11 10 10 45 44 79 79 100 97 100 100 100
27 36 33 29 34 28 31 46 34 28 26 26 27 26 26 27 30 33 37 31 34 30 32 32 30 32 35 31 26 24 22 20 18 17 14 14 13 12 12 14 58 80 87 85 100 100 100 100 100
22 27 26 26 30 28 32 42 32 24 28 29 27 26 25 27 29 35 40 35 36 37 40 38 41 42 38 31 27 25 24 23 21 21 16 15 16 14 13 12 38 100 99 84 100 100 100 86 100
23 23 22 23 26 31 41 57 33 27 26 26 28 28 28 28 28 33 40 41 46 48 47 53 47 53 43 34 30 29 26 24 27 25 19 16 19 15 14 12 12 100 100 98 100 100 100 100 100
31 26 23 22 24 26 32 49 60 37 22 25 31 31 25 31 32 47 71 50 51 73 68 61 56 55 46 43 38 32 31 27 28 27 24 18 21 19 16 13 11 69 100 100 87 91 96 100 100
36 32 27 26 30 34 32 30 51 65 36 30 30 34 30 57 40 54 99 99 86 86 86 72 58 59 56 52 43 39 32 30 34 33 31 20 23 22 19 16 13 18 88 100 100 77 71 92 100
29 30 32 31 30 26 34 31 32 39 74 57 53 44 54 84 79 91 100 100 84 94 91 79 65 64 71 62 46 45 42 39 41 38 32 22 22 26 22 20 16 12 19 100 100 100 93 65 89
31 30 32 35 35 37 50 35 30 34 35 67 90 53 49 79 99 89 100 100 100 94 96 94 76 77 82 73 58 49 36 42 47 52 36 26 23 27 27 23 17 14 14 34 97 100 100 100 100
36 34 50 52 57 47 50 51 56 32 27 32 56 73 78 64 100 80 100 100 100 100 100 96 84 89 91 93 75 56 37 38 54 56 37 36 28 28 30 23 19 17 16 22 49 90 100 100 100
46 68 83 75 66 71 70 59 62 43 29 24 28 51 69 89 100 100 100 100 100 80 97 100 92 83 85 99 78 56 53 58 63 50 44 38 35 27 32 25 21 19 19 20 31 74 100 100 100
98 100 95 96 99 85 74 54 47 42 40 25 22 27 53 78 100 100 100 100 100 100 100 82 93 76 83 95 92 81 75 86 66 46 40 41 40 30 33 31 24 21 22 24 39 65 99 96 100
100 100 100 100 100 88 70 60 52 42 36 32 20 20 27 61 97 100 100 100 100 99 100 87 78 68 92 100 99 92 100 87 70 58 39 40 39 31 33 35 29 25 23 36 59 90 90 100 98
100 100 100 98 77 58 47 41 38 31 34 33 28 20 23 31 69 100 99 100 100 100 100 99 81 73 98 100 100 100 100 89 89 63 40 38 42 34 32 38 32 28 23 30 71 79 78 80 74
100 88 76 54 44 44 37 27 28 29 30 24 25 22 20 26 34 64 100 100 100 100 100 100 100 80 100 100 100 100 100 100 86 63 48 36 40 44 32 41 38 35 26 24 49 62 83 74 83
74 56 44 54 48 40 32 20 25 23 21 23 23 19 19 21 28 41 59 95 100 100 100 100 100 100 90 100 100 100 100 100 100 79 71 45 36 48 37 38 44 40 32 24 31 51 96 72 81
70 58 46 36 39 30 29 22 21 25 22 21 27 21 18 20 24 32 46 59 100 100 96 100 100 100 100 95 100 100 100 100 100 97 90 51 37 45 44 41 50 46 38 30 27 48 84 89 79
51 46 41 29 34 20 20 19 20 22 25 21 23 23 19 19 26 27 42 48 93 100 100 100 100 100 100 100 100 100 100 100 100 84 68 52 47 48 53 46 55 54 44 39 30 38 62 95 81
36 31 25 21 21 16 17 16 17 19 18 17 19 19 20 19 22 29 38 60 64 98 100 100 100 100 100 100 100 100 100 100 93 88 82 69 48 56 62 51 57 65 55 46 38 31 52 57 76
28 19 17 14 16 17 15 14 13 15 20 16 15 16 16 21 22 28 45 52 66 82 99 100 100 100 100 100 100 86 93 86 80 82 87 70 53 68 64 70 70 73 82 54 38 38 43 55 55
32 24 18 16 16 16 15 9 8 12 16 16 13 16 17 21 26 29 36 68 58 65 96 100 100 100 100 100 97 80 74 71 63 66 88 64 54 71 71 70 96 82 95 61 41 38 38 55 53
27 23 17 16 15 11 15 5 7 10 14 10 16 14 18 21 28 34 40 65 80 66 81 100 100 100 100 100 90 66 61 63 77 78 87 76 85 90 75 91 98 100 99 62 54 42 37 59 52
24 17 17 16 11 6 11 5 12 6 7 9 16 14 20 22 31 37 41 80 85 81 85 99 90 97 96 77 93 100 90 81 79 97 100 85 86 100 99 92 92 100 93 74 52 55 36 50 61
16 14 15 13 9 7 6 4 8 5 8 13 16 12 14 21 26 32 40 60 70 59 60 82 86 77 99 100 100 100 100 93 79 92 98 100 100 100 100 82 75 99 78 73 64 72 39 39 70
17 15 10 12 6 5 4 5 6 5 9 11 8 7 14 22 30 32 35 55 61 68 60 100 100 100 100 100 100 100 100 97 100 100 97 100 100 98 79 62 63 67 72 69 71 70 46 40 66
16 14 10 6 4 5 4 5 7 5 10 9 6 8 15 22 30 37 45 55 67 77 62 78 100 100 100 100 100 100 99 98 100 100 100 99 87 86 73 70 61 52 69 80 83 67 53 41 53
15 14 7 4 4 4 5 8 9 5 8 7 6 8 15 25 29 43 44 53 72 81 77 77 88 100 100 100 100 100 100 100 100 100 100 100 95 91 73 67 61 65 73 81 81 68 55 44 67
15 9 6 6 5 4 6 7 9 6 7 7 9 15 97 100 71 44 41 51 65 73 79 95 99 83 100 100 100 100 100 89 100 100 89 77 72 64 66 71 74 65 69 93 86 76 52 45 89
13 6 4 6 6 5 7 7 6 6 9 10 22 47 100 89 100 98 95 66 69 100 74 91 100 100 100 100 100 100 100 100 100 75 70 81 64 63 66 77 76 81 74 77 72 56 49 47 93
10 7 6 7 7 6 6 8 10 9 11 29 47 56 89 100 100 100 100 100 100 97 85 88 79 85 100 100 100 100 100 100 76 78 100 100 86 85 75 73 88 79 79 75 69 52 47 48 88

GFSSGP_250_rhum_129.txt.gz
RH
47 45 47 45 45 44 45 43 45 57 58 60 61 60 59 58 55 52 45 37 34 31 31 31 29 28 27 24 23 22 21 19 18 17 15 13 13 12 11 9 9 8 10 18 54 75 81 88 86
34 36 38 38 35 34 39 38 41 39 36 36 32 35 37 40 43 37 33 34 33 31 31 32 31 32 29 26 27 26 25 23 21 19 17 16 14 13 11 10 10 8 16 39 84 92 93 100 100
48 44 35 34 34 33 30 27 26 26 24 25 23 24 26 27 30 29 28 28 30 31 31 33 38 39 37 35 34 32 30 26 23 22 19 18 16 14 12 10 10 9 10 64 100 100 100 100 100
28 29 28 25 25 27 31 27 28 22 25 24 20 20 23 20 24 28 28 28 27 27 29 32 41 39 41 44 40 36 34 29 25 24 22 21 19 17 15 12 11 10 11 64 100 100 100 100 100
24 26 22 22 26 28 28 25 22 22 20 19 17 17 22 24 26 29 29 30 33 31 36 44 50 51 49 49 44 42 39 34 29 29 25 27 24 19 18 16 12 11 10 26 100 100 100 100 100
29 25 26 32 36 36 33 28 26 23 23 23 24 28 29 28 25 27 30 32 40 42 51 83 76 75 70 59 56 53 48 39 36 30 25 27 27 21 20 18 16 13 12 11 62 100 100 100 100
29 24 25 26 28 30 33 31 30 29 29 27 25 25 31 35 35 36 43 50 60 62 77 95 98 93 81 68 64 63 55 45 37 35 31 35 38 25 21 22 18 16 13 11 15 98 100 100 100
43 41 43 48 27 30 39 31 31 29 36 26 29 27 27 37 49 76 47 76 100 100 100 100 100 96 95 76 71 67 61 50 43 36 42 44 51 37 24 25 22 18 16 13 12 25 100 100 100
71 74 79 60 41 28 54 49 54 38 36 32 22 25 27 29 36 82 91 75 100 100 100 100 100 100 93 82 84 76 70 57 49 38 40 56 57 45 31 26 28 24 17 15 14 14 29 100 98
84 69 45 38 36 29 36 98 100 60 44 62 36 21 22 24 28 52 98 98 91 100 100 100 100 100 93 92 93 83 85 67 55 40 42 64 67 54 36 28 28 30 21 18 16 16 19 24 95
55 44 40 36 34 27 45 67 93 83 79 96 84 65 38 21 22 27 77 100 90 100 100 100 100 100 100 100 98 84 94 89 63 38 53 68 65 54 40 29 30 31 26 25 19 19 24 55 74
34 33 32 31 30 43 72 67 77 92 100 98 68 56 46 37 25 22 38 90 100 100 100 86 100 91 100 100 100 90 87 89 68 52 63 75 72 53 41 30 28 31 32 28 23 21 28 43 54
42 36 32 36 81 84 67 69 94 93 78 65 53 39 38 38 26 20 24 65 100 100 100 100 90 100 100 100 100 99 77 89 89 83 87 91 64 51 43 38 32 31 38 33 28 23 30 54 68
36 47 91 100 98 94 81 84 60 81 70 53 50 44 35 31 26 23 22 33 81 100 100 100 86 97 100 100 100 100 82 100 100 86 98 83 74 55 50 39 36 37 36 38 36 27 24 55 72
100 100 100 100 100 100 83 74 69 68 62 54 46 38 41 32 26 22 30 29 87 98 100 100 100 78 90 100 100 100 100 100 100 76 92 100 81 65 55 50 36 36 41 36 43 36 25 32 55
100 100 100 98 90 69 57 37 38 37 32 34 34 34 32 33 28 18 21 23 33 88 100 100 100 100 64 95 100 100 100 100 100 98 98 100 99 82 64 56 36 39 41 41 48 43 38 30 51
92 82 67 41 40 40 32 17 26 26 27 23 23 27 30 30 31 21 18 21 26 48 100 100 100 100 100 78 98 100 100 100 100 100 82 100 100 95 73 55 41 37 42 42 53 51 45 31 47
55 44 38 31 35 25 22 18 20 21 20 23 24 23 25 22 22 23 20 19 24 36 91 100 100 100 100 100 76 100 100 100 100 100 100 96 100 100 81 56 45 40 51 51 50 60 62 36 35
37 32 30 28 27 22 23 17 19 21 19 20 21 22 24 22 21 21 17 17 20 30 55 100 100 100 100 100 100 83 100 100 100 100 100 100 100 100 74 56 58 44 54 60 56 65 71 50 34
29 25 24 22 26 19 14 10 15 18 19 18 17 16 20 25 20 20 20 17 18 25 38 98 100 100 100 100 100 96 77 87 99 100 100 100 100 99 79 66 66 51 49 62 70 83 93 71 44
38 30 24 20 19 23 18 13 12 14 11 10 13 15 14 16 16 16 14 18 16 21 30 64 100 100 100 100 100 100 85 70 73 100 100 100 100 100 79 79 51 56 66 69 96 100 100 83 54
33 29 28 29 26 15 23 9 13 12 9 9 7 10 12 13 12 12 12 14 16 19 25 39 95 100 100 100 100 100 86 77 100 100 100 100 100 83 86 92 52 72 82 96 100 98 100 87 59
30 31 37 33 26 15 20 9 11 7 6 5 5 6 7 8 8 11 10 12 16 18 22 26 73 100 100 100 100 100 100 100 99 98 99 83 78 87 90 78 71 88 96 92 80 73 95 93 65
32 28 33 33 21 14 13 7 8 5 3 4 4 5 6 7 8 8 8 12 14 18 23 29 57 100 100 100 100 100 100 91 78 91 70 60 86 88 85 80 75 91 90 95 76 57 68 69 68
44 33 29 23 15 19 13 8 5 4 3 3 4 5 5 5 5 6 8 12 14 24 25 29 64 99 100 100 100 100 100 100 98 63 64 74 97 96 99 92 94 98 100 81 58 59 55 61 68
42 34 27 13 13 17 11 5 4 3 3 4 4 3 4 6 9 12 13 16 17 23 30 36 69 92 94 100 100 100 100 81 95 64 64 97 92 98 100 100 100 100 99 60 70 57 57 58 64
43 38 26 15 17 13 6 4 4 4 4 4 5 7 10 12 15 14 16 17 22 29 37 40 77 88 91 100 84 88 76 82 100 88 83 100 93 99 100 100 100 100 71 52 54 62 67 70 70
47 27 20 17 14 9 5 4 4 4 4 7 10 27 26 33 29 26 27 27 32 37 40 48 81 87 76 100 100 100 100 100 97 69 67 73 93 100 100 100 100 80 66 60 50 53 72 76 72
43 26 19 16 10 6 6 5 5 5 6 9 80 94 90 100 94 100 100 72 41 43 45 62 69 85 70 73 100 100 87 99 100 100 100 100 100 100 100 100 87 65 71 64 55 54 66 86 73
30 25 21 14 9 7 7 6 6 7 9 13 87 96 100 98 100 100 100 100 100 99 91 82 100 100 88 80 76 75 100 100 100 100 100 100 100 100 100 100 81 53 85 80 79 56 72 83 76

GFSSGP_250_rhum_132.txt.gz
RH
46 56 62 62 64 60 57 59 64 69 67 69 67 61 59 64 66 65 62 58 56 53 55 55 50 42 39 37 34 30 29 26 27 23 20 18 17 15 14 12 11 10 8 8 8 9 16 42 57
33 34 42 46 42 44 48 46 42 43 48 50 50 46 43 42 48 44 42 38 36 37 41 40 35 33 32 32 32 30 31 30 29 26 24 21 20 18 16 14 13 11 10 9 10 9 22 46 64
39 36 36 45 46 45 42 44 35 34 36 37 35 34 32 27 27 26 30 27 25 26 27 29 30 30 29 32 34 35 39 36 34 31 26 25 23 20 18 17 15 13 12 14 20 29 40 76 86
33 50 39 36 36 36 33 32 26 26 26 28 26 23 22 20 20 19 20 20 22 24 24 24 25 28 29 36 46 46 44 44 41 36 31 28 27 23 22 19 17 15 12 12 13 23 32 96 100
39 30 31 32 30 29 28 25 28 27 25 22 21 19 18 19 18 18 18 18 18 23 23 23 31 30 38 49 54 55 50 51 50 41 39 33 30 26 24 21 19 17 17 36 37 45 24 93 100
36 44 38 35 34 35 30 27 27 25 25 24 25 25 27 25 19 16 15 17 25 29 30 31 51 44 40 68 79 86 77 65 61 52 46 39 33 28 28 24 22 20 16 32 44 50 23 33 100
46 75 64 43 60 48 49 46 53 43 28 24 24 25 27 31 28 28 25 20 21 29 34 40 52 78 61 80 96 88 91 73 72 66 56 45 35 30 32 29 28 23 19 15 44 40 13 13 65
31 53 78 83 79 68 67 68 58 54 43 32 24 26 26 26 34 35 33 38 26 37 44 46 56 67 73 99 99 89 93 89 80 74 63 50 37 34 43 40 34 27 22 17 34 28 29 16 14
35 55 56 71 72 75 77 66 51 43 32 29 24 22 24 31 27 38 54 52 38 35 66 83 72 65 100 92 95 93 96 90 88 82 69 53 39 39 50 55 42 32 28 23 34 59 45 36 15
40 47 53 65 77 72 60 51 44 39 35 32 28 24 27 35 51 60 75 49 44 35 41 84 99 90 100 100 100 100 100 94 90 87 75 61 50 44 57 62 51 36 29 25 26 36 56 20 15
47 59 63 70 66 52 47 37 35 35 28 30 43 42 23 28 44 62 50 36 42 42 37 49 98 89 98 100 100 100 97 97 90 90 82 68 56 43 72 80 56 41 28 30 28 25 24 19 18
66 71 72 68 59 40 32 33 31 28 37 41 46 70 64 43 39 37 41 34 32 38 40 35 96 95 89 100 100 98 93 93 98 91 91 84 54 44 65 84 58 48 31 34 35 30 30 22 22
83 74 52 47 46 44 33 33 42 60 69 80 87 86 89 74 64 63 61 60 47 40 47 41 67 100 91 100 100 100 89 89 100 100 97 91 75 59 59 90 56 54 38 31 38 35 33 28 22
92 87 70 46 41 36 43 65 83 100 100 100 100 100 99 87 65 48 50 55 51 42 74 81 46 100 99 97 100 100 92 85 98 100 100 93 94 76 78 80 67 57 57 35 31 37 38 34 25
66 53 51 54 53 56 99 100 100 100 91 84 69 52 50 49 37 32 37 36 39 37 51 75 48 100 100 98 99 100 100 88 84 93 94 98 100 92 91 82 80 66 54 44 33 41 40 44 33
59 46 58 96 99 98 91 87 80 68 52 41 36 32 28 26 31 26 25 26 27 29 31 51 51 61 100 100 100 100 100 93 76 81 86 99 100 100 100 96 76 68 63 46 41 41 46 46 54
86 100 100 100 100 88 84 72 43 39 32 29 29 29 30 26 26 32 25 21 20 20 27 35 68 47 100 100 100 99 99 95 88 82 93 99 100 100 100 100 73 59 80 54 46 46 47 49 46
100 100 100 100 94 67 39 34 30 28 24 25 26 25 23 23 22 26 30 21 17 16 19 29 75 87 100 100 100 100 90 98 100 100 99 100 100 100 99 80 71 65 90 63 44 44 47 51 54
100 100 100 84 63 45 30 27 23 25 26 24 21 18 18 14 16 18 20 24 20 15 15 22 40 89 100 100 100 100 100 98 100 100 100 100 100 100 100 80 68 70 87 63 48 46 52 45 53
99 82 54 37 37 28 23 18 22 24 21 15 12 11 12 13 12 16 15 16 18 18 13 18 25 48 87 98 100 100 100 97 100 100 100 100 100 100 100 99 89 94 93 65 45 45 56 61 74
40 36 29 33 29 39 29 19 18 22 16 8 8 6 6 8 12 10 13 14 14 14 14 13 23 27 42 72 100 100 100 86 99 100 100 100 100 100 100 100 100 100 92 65 47 46 64 84 97
35 38 42 35 29 28 48 22 19 15 10 10 10 6 4 6 9 10 10 13 14 13 14 13 17 24 27 46 86 100 100 100 95 100 100 100 100 100 100 100 100 100 81 65 45 44 74 96 84
65 50 38 36 43 28 30 26 13 7 8 8 7 6 5 5 7 8 9 10 11 12 11 13 15 20 24 35 71 96 100 100 98 100 100 100 100 100 100 100 100 93 77 60 48 44 73 79 72
57 52 54 54 34 26 33 26 14 8 8 7 5 4 4 4 4 6 7 7 7 8 9 11 14 19 23 40 78 100 100 100 94 99 99 100 100 100 100 100 86 74 58 66 54 63 84 71 67
69 50 41 37 30 26 35 22 12 9 8 5 3 3 4 4 4 5 7 8 7 7 11 11 16 24 26 44 74 100 100 100 78 76 89 95 100 99 98 89 77 62 65 70 58 72 99 86 59
60 48 40 28 25 16 43 17 10 10 6 4 4 4 4 5 5 6 8 12 12 12 13 14 19 26 30 44 76 100 100 100 97 74 93 96 92 92 92 78 66 70 66 83 71 77 99 99 56
58 48 42 39 31 22 28 17 15 7 4 4 5 6 6 7 7 9 13 16 17 17 15 15 22 27 30 40 76 100 100 100 99 61 58 71 82 86 97 67 63 88 91 78 99 100 100 86 53
52 54 62 51 28 18 31 17 10 6 5 8 8 7 7 10 10 13 14 15 18 16 17 20 26 30 35 46 63 74 100 100 90 77 69 76 89 80 72 67 68 87 97 96 100 100 99 76 48
66 65 56 42 27 18 19 17 7 6 7 12 11 12 13 19 22 25 36 23 21 20 23 26 30 35 48 54 64 75 100 98 87 86 96 86 78 79 70 59 92 100 96 100 100 100 92 64 54
74 68 55 35 32 22 22 11 7 7 19 37 29 31 39 62 44 60 83 51 36 30 29 34 50 100 89 76 90 100 100 100 78 85 97 97 98 80 77 82 100 76 58 67 98 100 99 64 58

GFSSGP_250_rhum_135.txt.gz
RH
77 90 86 82 78 77 83 83 77 70 63 60 59 55 55 52 54 60 64 63 60 56 54 50 52 51 45 43 43 38 36 38 38 33 29 27 23 22 21 19 17 15 12 11 9 9 30 36 25
52 61 70 71 66 70 65 58 49 46 48 55 63 60 54 51 53 47 46 47 51 51 46 41 38 37 37 33 29 30 31 32 35 33 31 27 24 24 24 22 20 17 15 13 12 11 17 38 44
32 36 39 49 58 50 42 35 31 28 28 29 31 33 31 28 26 25 24 23 31 27 27 26 23 24 29 27 25 26 27 28 37 40 40 37 32 31 32 27 24 20 18 19 20 26 19 15 24
24 24 26 29 34 33 29 28 28 28 27 30 32 30 29 28 26 22 21 18 16 17 16 17 17 20 23 24 29 27 26 33 46 51 53 52 46 44 35 32 28 23 22 20 20 32 34 23 24
28 26 24 28 31 34 34 26 29 28 29 25 24 23 22 24 22 23 20 18 15 14 14 16 17 20 23 30 39 42 39 47 53 69 72 65 61 54 43 37 31 28 27 39 47 59 47 37 47
29 31 32 36 36 36 36 30 31 30 30 29 25 27 25 23 24 25 28 28 22 18 15 15 15 16 24 37 50 64 53 57 62 84 80 75 73 69 54 47 34 34 30 23 19 15 22 20 33
31 32 32 46 68 77 63 51 54 50 44 33 30 37 41 39 33 26 24 33 38 30 23 24 19 18 20 40 44 79 66 65 68 82 87 81 79 75 63 52 36 33 26 25 21 19 22 26 24
30 29 38 40 46 81 76 67 54 38 44 47 44 42 45 38 30 28 29 31 35 45 43 41 34 24 23 48 59 70 80 81 79 87 89 83 82 79 71 54 34 36 33 31 42 56 51 31 25
34 34 34 33 36 41 43 47 45 46 53 62 59 48 41 36 32 29 25 33 42 60 72 58 46 43 32 46 88 78 93 97 91 94 90 91 84 82 74 60 42 40 46 35 29 57 72 52 42
51 51 42 45 44 43 48 50 56 62 65 66 54 39 36 30 29 25 25 24 38 61 80 86 56 48 40 39 59 100 99 100 100 87 91 88 88 90 75 77 58 53 66 42 30 59 69 74 53
56 46 42 43 42 41 47 71 77 80 81 71 60 45 38 32 29 32 30 28 28 35 49 57 45 64 48 37 53 100 93 100 100 94 95 86 92 92 78 86 80 69 85 56 35 30 34 33 51
68 58 51 46 46 53 66 77 88 80 54 48 44 46 35 29 39 42 69 50 42 40 41 44 57 68 68 43 34 93 100 94 100 100 100 96 95 92 85 86 90 69 89 67 36 32 32 31 32
45 44 39 42 41 42 54 74 64 65 56 47 39 43 48 61 60 58 64 72 62 57 53 52 53 61 66 58 41 52 99 100 81 99 98 95 94 98 90 82 81 88 100 63 50 39 34 30 36
63 50 47 45 44 49 59 60 58 49 52 58 56 74 96 100 100 90 73 70 74 68 54 41 40 40 59 64 56 39 76 100 97 84 97 99 95 96 94 89 70 99 100 68 58 48 44 34 39
81 85 87 78 87 82 66 54 62 58 54 53 95 98 82 76 68 61 57 44 35 31 29 27 24 28 62 68 69 58 48 100 100 97 82 94 94 98 91 94 72 93 100 92 75 61 52 39 36
90 82 90 97 87 77 67 68 72 68 75 78 76 91 96 79 58 40 38 34 25 26 26 23 32 25 42 63 94 84 51 70 100 100 94 79 91 97 82 100 96 86 100 100 88 66 66 44 39
59 50 56 67 71 72 64 99 100 87 83 97 100 95 80 46 34 31 29 29 28 18 19 21 22 23 29 39 95 100 98 54 99 100 100 91 85 90 84 100 100 98 100 100 95 84 71 60 44
50 48 46 43 58 83 100 100 100 98 86 88 83 69 49 32 27 27 28 25 30 26 14 16 19 19 23 28 53 100 100 73 83 100 100 99 78 78 76 98 100 95 88 98 89 77 73 69 51
47 41 54 87 97 90 100 100 100 95 69 48 32 28 24 22 22 28 31 31 15 19 17 11 15 18 21 21 32 88 98 98 78 100 100 100 80 65 71 97 100 100 90 74 70 68 79 78 55
41 49 84 88 98 96 94 91 58 36 31 26 21 19 21 19 16 14 13 13 14 10 12 13 11 15 19 20 25 59 96 100 72 85 100 100 95 76 89 100 100 100 100 67 48 49 79 82 56
50 81 100 88 82 79 66 52 37 33 25 19 23 31 18 8 6 8 10 10 11 12 11 11 10 12 16 22 22 36 65 73 66 66 99 100 100 100 95 95 100 100 100 93 53 46 74 84 56
51 54 61 60 54 46 39 27 29 28 25 31 30 19 12 9 8 6 7 7 8 7 7 8 9 9 13 22 22 27 49 76 98 89 98 100 100 100 85 88 100 100 100 100 81 78 84 76 55
54 51 48 44 43 46 43 38 25 26 22 23 18 10 8 7 7 6 6 6 7 6 6 7 9 8 11 18 21 27 41 81 100 97 80 90 100 100 87 96 100 100 100 100 96 90 86 65 56
50 46 48 54 56 69 56 36 28 21 15 12 10 8 8 7 5 4 4 4 4 4 5 7 8 9 9 15 21 26 36 82 100 100 82 90 100 100 93 100 100 100 100 100 93 90 90 63 65
52 63 59 66 82 78 54 42 29 24 19 12 10 9 6 4 3 3 3 3 3 4 6 8 8 11 11 14 20 27 37 57 100 100 90 88 99 100 100 100 100 100 100 100 90 86 76 61 64
71 74 88 71 68 61 60 40 30 29 20 15 11 7 5 4 4 3 3 3 3 4 6 7 10 14 15 17 22 27 36 38 70 89 81 76 84 100 100 100 100 100 100 77 76 71 76 67 76
98 83 80 67 64 58 47 44 38 40 21 16 10 7 6 5 5 5 4 4 4 5 8 11 16 20 19 18 22 25 30 33 36 58 73 83 72 92 100 100 100 95 67 79 65 67 67 82 93
96 87 72 74 70 42 43 42 31 34 22 16 9 9 7 6 7 5 5 6 5 6 7 12 16 18 20 21 25 28 28 31 32 45 51 80 68 89 100 98 82 75 60 67 65 68 67 73 100
90 76 88 74 60 45 27 39 32 25 23 13 10 9 8 9 10 10 7 8 8 10 13 13 17 23 29 27 27 25 28 31 32 51 58 72 62 71 72 68 79 85 73 66 82 83 97 100 100
90 84 83 78 58 49 27 44 25 27 18 14 18 18 10 14 10 19 17 17 14 13 14 16 21 24 51 35 34 27 30 56 67 64 65 79 92 68 78 88 95 100 87 81 92 100 99 86 89

GFSSGP_250_rhum_138.txt.gz
RH
65 65 80 89 89 92 92 90 70 58 53 50 52 53 56 51 51 49 46 40 39 38 37 40 43 40 45 50 45 48 48 39 37 35 35 34 30 29 26 23 21 19 18 18 17 13 17 23 39
28 31 38 48 65 76 78 77 78 75 76 78 72 72 70 64 55 47 33 33 35 47 48 43 38 34 35 37 41 43 35 32 29 28 29 31 29 29 27 26 26 25 25 18 17 17 26 26 33
17 19 22 29 32 33 40 53 55 59 64 71 63 61 56 43 26 26 24 21 19 21 26 29 23 19 20 19 23 26 20 25 24 25 29 30 32 38 39 39 39 31 26 23 25 32 24 30 24
17 18 20 27 29 28 26 26 28 28 28 38 39 32 30 27 23 22 23 22 20 20 19 17 16 15 18 20 16 18 17 24 28 30 34 38 43 49 52 47 44 40 35 32 31 35 43 38 38
22 21 23 29 26 21 17 18 20 19 21 23 22 22 22 24 24 25 24 21 19 17 15 14 13 13 13 14 16 18 28 35 40 42 51 46 57 61 64 59 55 48 43 38 50 51 31 24 18
25 25 29 30 27 26 21 22 25 24 20 22 28 27 24 26 29 34 37 36 33 28 22 21 18 16 15 16 16 18 25 40 53 66 74 63 62 63 70 69 70 61 55 45 34 28 24 33 35
28 29 32 30 28 29 28 31 30 31 30 28 36 34 29 26 36 39 40 39 36 33 27 25 30 22 18 19 20 23 25 38 54 73 98 78 66 69 75 67 74 74 64 50 34 29 28 32 29
28 30 33 33 34 32 34 34 34 39 46 39 33 38 40 35 38 40 37 36 33 32 31 28 28 30 24 27 24 22 26 40 68 74 100 86 74 74 72 69 71 81 73 51 34 48 61 62 34
32 35 35 37 43 49 48 50 47 46 45 40 40 40 49 51 47 49 52 46 39 34 30 28 33 34 48 36 37 31 29 33 66 60 98 97 82 78 82 70 72 81 76 55 37 53 64 72 83
39 39 43 51 61 65 56 60 58 56 54 47 49 46 44 48 51 46 47 56 44 35 34 29 28 40 62 62 54 44 45 39 44 63 84 100 90 87 87 81 79 87 83 65 42 55 63 55 68
62 58 50 54 51 57 70 69 59 47 40 45 53 57 50 62 71 67 58 44 44 36 30 33 36 38 56 81 76 54 41 52 36 62 95 95 92 100 89 86 86 90 91 72 51 58 65 77 59
47 54 63 74 65 70 82 57 59 54 55 60 53 59 60 60 64 50 48 49 42 37 37 37 36 35 38 51 74 74 49 48 54 49 100 100 96 98 88 91 98 90 100 89 68 60 61 44 37
60 53 86 100 94 88 95 84 94 83 84 76 73 72 69 62 54 44 48 51 54 53 62 66 62 55 45 50 58 80 66 49 53 47 73 100 100 98 91 95 100 96 100 100 89 72 63 59 56
41 40 66 97 100 97 83 78 87 96 99 88 78 90 84 64 48 56 60 62 59 80 74 59 48 44 41 40 50 68 89 85 55 50 50 95 100 100 99 84 92 100 100 100 100 76 67 59 56
42 38 52 78 98 100 100 89 78 77 84 87 82 88 73 60 59 63 84 86 75 75 83 79 60 54 40 40 36 29 34 99 67 61 47 75 100 100 100 75 84 95 100 100 100 88 77 68 57
44 34 49 63 69 70 71 65 58 52 53 67 71 76 71 76 90 97 100 98 88 84 78 72 55 54 50 43 36 32 26 52 100 59 54 63 98 100 100 98 78 90 100 100 100 100 88 79 64
46 34 36 45 54 64 67 56 50 47 49 58 59 73 96 100 100 100 85 84 100 94 81 74 67 52 40 34 33 31 29 31 67 76 54 55 100 100 100 100 89 87 100 100 100 100 100 84 67
48 39 37 36 42 54 59 54 45 48 72 86 89 97 100 99 98 98 100 100 85 68 51 41 31 32 33 31 29 27 29 33 62 82 72 55 95 100 100 100 100 92 100 100 100 100 100 100 74
73 53 41 35 38 45 49 53 64 88 89 81 75 68 66 66 67 68 67 42 34 34 36 36 29 20 18 23 21 22 23 28 69 79 79 60 70 100 100 100 100 100 100 100 100 100 100 99 76
60 50 42 43 41 42 47 52 59 68 65 64 68 61 51 48 47 42 34 32 30 28 27 24 25 14 8 9 14 17 22 26 28 70 57 75 57 100 100 100 100 100 96 100 100 100 99 86 74
43 44 43 42 42 39 42 49 58 71 60 59 55 44 34 28 27 25 23 22 16 12 12 12 12 15 10 7 9 16 18 19 19 34 40 100 71 78 100 100 100 100 100 97 100 100 97 76 55
43 42 43 52 50 42 44 47 49 44 40 36 30 29 27 28 26 17 9 8 8 8 8 8 7 8 8 7 6 10 14 18 34 28 41 95 85 58 100 100 100 100 100 100 100 100 100 86 51
45 51 53 44 48 43 44 42 41 32 33 32 30 30 36 40 27 13 8 7 6 5 5 6 6 6 5 6 6 8 12 22 100 100 90 42 81 58 72 100 100 100 100 100 100 100 100 100 83
56 62 64 54 61 56 53 49 47 36 32 29 32 32 34 23 12 8 6 6 6 4 4 3 4 4 5 6 7 10 14 16 80 95 100 33 64 67 55 93 100 100 100 100 100 100 100 100 97
63 62 61 62 72 69 65 63 53 36 30 24 23 26 20 12 9 7 5 4 3 2 3 3 3 4 6 7 9 14 14 17 22 63 39 32 45 73 54 89 100 100 100 100 98 100 100 100 100
61 60 75 75 76 79 81 74 55 39 28 27 28 27 12 12 8 5 4 3 3 3 3 3 3 4 6 9 12 15 17 20 24 28 34 41 38 68 61 64 93 100 99 100 100 100 100 100 100
53 76 77 76 79 76 70 64 53 41 36 32 36 22 17 11 7 6 4 5 5 4 4 4 4 6 8 10 12 17 23 25 25 30 30 29 31 54 71 53 81 100 97 96 100 100 100 100 98
64 77 76 96 100 87 75 52 51 38 43 41 34 20 17 9 9 8 7 8 7 6 5 5 6 8 11 12 14 21 23 24 25 25 27 24 30 48 65 61 73 86 85 100 100 96 92 90 74
81 97 94 83 81 81 78 60 47 37 32 37 23 21 15 14 16 13 10 9 9 8 6 8 10 11 13 29 20 40 38 27 26 25 25 25 29 41 68 75 56 73 89 77 66 68 87 91 81
83 84 78 78 85 87 72 61 45 28 33 34 29 21 19 30 38 24 15 13 9 14 11 13 13 22 36 19 31 24 31 40 40 22 20 19 27 39 78 75 62 82 88 86 99 100 100 100 100

GFSSGP_250_rhum_141.txt.gz
RH
58 68 83 87 87 93 96 83 75 76 66 60 54 51 47 49 52 38 35 34 33 33 35 33 34 42 46 35 38 40 44 39 40 33 31 35 38 38 35 28 27 26 24 22 24 25 30 32 41
20 23 31 42 50 59 69 78 76 70 75 76 71 73 75 69 75 61 59 48 49 48 60 59 54 38 28 24 21 22 36 45 33 24 23 25 27 30 27 24 24 23 28 29 25 30 31 33 31
18 18 17 17 20 23 33 47 54 36 36 38 45 52 66 62 56 55 64 62 58 52 47 40 38 27 18 20 18 18 21 24 20 19 19 23 23 25 23 37 40 38 41 32 32 36 35 27 33
19 18 18 20 18 16 18 18 18 20 20 23 24 26 30 31 28 30 31 26 23 21 18 17 16 16 16 15 15 16 15 15 16 18 18 28 35 35 39 41 58 50 38 38 37 37 29 32 29
20 21 22 22 21 17 17 17 18 18 20 20 19 18 19 21 25 24 24 23 21 22 19 18 19 17 15 14 14 13 13 12 14 19 23 27 52 54 48 58 63 55 56 54 50 47 37 32 25
24 22 24 24 23 20 18 24 22 22 21 23 27 23 22 31 44 34 29 27 28 28 27 25 24 26 24 21 19 18 16 14 16 18 32 38 62 74 64 67 68 65 61 65 65 53 46 35 61
30 28 25 26 24 23 26 30 28 29 26 27 31 29 30 27 43 36 36 36 35 32 33 34 31 29 31 30 27 23 19 17 17 18 29 59 51 91 95 95 76 68 63 70 65 66 54 36 53
41 36 30 31 28 29 34 34 35 37 40 36 40 46 42 40 40 40 40 35 33 31 34 37 40 38 34 32 28 28 27 24 22 22 28 51 69 100 100 98 92 75 74 68 65 64 49 44 94
45 43 48 39 38 40 43 44 45 54 63 60 63 64 60 52 47 52 50 44 41 38 41 53 51 49 51 36 31 33 36 36 31 27 32 37 80 100 100 99 97 66 74 76 66 64 52 51 74
73 54 37 50 61 69 59 55 55 60 72 73 80 72 64 52 44 39 35 38 48 43 44 47 55 56 45 42 32 33 38 50 48 39 34 36 62 98 100 100 98 74 78 82 77 72 60 46 52
82 87 79 73 93 100 100 81 91 99 93 67 84 74 55 52 46 42 38 34 36 42 42 43 43 47 45 40 35 36 56 73 85 62 46 36 49 54 89 100 100 89 83 83 86 79 61 46 67
91 98 93 77 87 74 59 61 100 100 98 82 81 94 68 62 53 51 52 48 51 53 55 53 46 42 44 40 35 34 53 75 94 78 68 44 40 46 82 100 100 100 87 86 86 85 63 60 48
100 90 77 60 57 64 43 58 97 99 99 100 100 98 88 88 92 83 72 75 74 64 65 66 48 40 49 46 42 41 44 50 63 68 70 61 59 42 63 98 100 100 100 92 93 89 77 65 64
97 72 59 54 52 46 41 47 43 59 100 100 98 96 99 99 86 77 72 67 74 81 72 63 56 49 53 59 65 74 64 70 63 61 80 56 80 75 44 90 100 100 100 97 98 100 91 76 83
87 82 65 59 63 52 48 47 38 34 44 68 88 94 93 75 58 51 58 77 81 78 78 82 89 64 71 62 48 54 54 40 44 50 59 65 62 58 62 51 100 100 100 100 100 100 94 92 79
81 84 77 75 75 71 65 54 40 36 35 38 50 55 57 54 53 51 56 81 92 100 99 98 91 95 91 91 100 84 73 51 41 42 44 45 40 39 57 48 96 100 100 100 100 100 98 97 95
100 100 100 99 82 83 70 61 61 52 39 36 40 56 62 64 54 48 60 87 100 100 100 100 93 86 94 98 96 88 87 72 64 59 56 40 37 32 51 56 64 100 100 100 100 100 100 98 91
66 89 100 100 90 98 93 75 57 50 43 36 37 36 42 46 50 85 99 100 97 92 83 93 96 97 94 78 68 80 74 70 62 59 55 51 31 29 45 60 54 99 100 100 100 100 100 100 99
73 77 97 99 94 80 72 60 50 44 47 38 36 36 40 38 44 83 100 100 96 100 100 100 74 79 65 54 70 64 53 44 63 44 38 42 36 26 35 61 59 89 100 100 100 100 100 100 100
65 91 97 99 88 76 65 56 50 46 39 36 37 34 31 33 34 35 37 36 40 45 51 63 81 67 49 42 27 38 34 27 26 53 31 32 38 24 34 52 61 69 100 100 100 98 100 100 100
60 52 76 86 84 73 65 59 47 40 41 39 39 36 36 33 36 38 38 36 36 38 34 28 23 20 16 16 17 11 12 12 17 34 73 33 43 27 29 44 64 65 100 100 100 100 100 100 100
86 73 71 67 60 57 50 52 51 34 30 33 32 35 35 38 36 32 32 30 29 28 21 17 15 12 14 13 15 12 8 8 14 30 65 96 46 35 21 35 60 71 88 100 100 100 100 100 100
69 64 55 45 43 60 62 50 53 34 32 33 38 36 38 37 34 29 29 25 18 15 14 11 8 6 6 6 7 9 7 5 9 16 34 82 99 36 22 22 38 75 80 100 100 100 100 100 100
68 59 56 47 46 54 50 46 40 39 37 37 38 36 35 33 34 35 29 17 12 9 7 6 6 7 6 5 5 6 6 6 7 10 20 72 100 38 19 22 25 64 75 100 100 100 100 100 100
80 68 67 52 52 48 41 43 44 35 44 39 36 36 40 38 40 37 22 14 8 6 7 6 4 3 3 3 3 4 5 6 7 9 15 38 98 83 40 70 44 50 82 93 100 100 100 100 100
80 70 61 56 47 43 42 44 42 42 50 42 40 35 35 40 35 21 12 8 8 7 4 3 3 3 3 3 3 3 5 7 7 17 44 67 100 100 100 100 87 50 66 78 100 100 100 100 100
68 56 49 48 46 41 43 45 51 49 43 44 44 42 39 33 20 14 10 9 6 6 5 4 4 4 3 3 3 4 5 6 6 27 64 79 99 100 94 99 100 69 49 59 85 95 100 100 94
58 58 49 50 51 45 52 56 56 52 50 49 44 41 36 32 17 14 12 8 7 7 10 6 6 5 4 4 4 5 5 6 8 34 79 90 79 85 54 100 92 61 59 50 66 76 88 100 100
59 70 52 52 52 48 58 63 53 49 59 52 44 38 43 23 16 14 15 14 19 14 12 10 7 7 8 6 6 7 8 6 20 93 100 100 100 96 96 99 53 66 32 65 61 76 86 100 100
84 81 76 54 53 54 80 90 62 54 58 52 46 42 41 22 18 16 14 43 31 24 20 13 10 12 12 9 9 11 12 26 67 100 100 100 94 100 100 66 16 42 22 50 73 69 73 100 89